Weather in Nevskoe

Russia / Kaliningrad Oblast     54°31′45″N   20°36′12″E
temp.,
°C
wind,
m/s
gust,
m/s
humid.,
%
clouds,
%
prec.,
mm/h
press.,
hPa
HPBL,
m
16 april, fri
fri1623:00+6nne41065100 0.0 1021430
02:00+4nne5981100 0.0 1020690
05:00+4nne5991100 0.1 1019575
08:00+4nne5990100 0.3 1019416
11:00+6nne5879100 0.1 1019575
14:00+6n4991100 1.5 1018424
17:00+7n3891100 0.2 1018347
20:00+8ene31092100 0.2 1019544
17 april, sat
sat1723:00+7nne3995100 0.1 1019283
02:00+7nne41094100 0.1 1019396
05:00+6ne3996100 0.0 1019257
08:00+7ne3899100 1.4 1020348
11:00+8ne379698 0.3 1020408
14:00+11ene458268 0.3 1021719
17:00+13ene457415 0.5 1020920
20:00+8ne37945 0.9 1021132
18 april, sun
sun1823:00+7ne399631 0.0 1022185
02:00+6ne2697100 0.0 1022137
05:00+5ne369822 0.0 1022132
08:00+8ene378826 0.0 1022270
11:00+14ne466811 0.0 1021970
14:00+15ne4662100 0.0 10211516
17:00+14ne3669100 0.0 1020314
20:00+10e36845 0.3 1021116
19 april, mon
mon1923:00+9e258979 0.0 1022105
02:00+9e2388100 0.0 102181
05:00+9ene2783100 0.0 1021161
08:00+9e3784100 0.0 1021338
11:00+11ene366921 0.0 1020698
14:00+13ne576568 0.6 10191383
17:00+11ene586799 0.1 10181449
20:00+8ene257642 0.1 1018175
20 april, tue
tue2023:00+5nne23885 0.0 101750
02:00+6n2489100 0.0 1015106
05:00+6nnw268987 0.1 1014171
08:00+8nne468322 0.1 1012468
11:00+10nne5670100 0.4 10111152
14:00+8n5684100 0.8 1010900
17:00+7n4787100 0.1 1009614
20:00+6nw4886100 0.2 1008352